Total_Precipitation_Accumulation
0.04 0.07 0.12 0.12 0.09 0.08 0.07 0.07 0.09 0.13 0.19 0.29 0.39 0.45 0.52 0.56 0.56 0.57 0.51 0.52 0.65 0.78 0.92 0.91 0.84 0.77 0.82 1.04 1.22 1.44 1.70 1.77 1.79 1.85 1.95 2.08 2.23 2.26 2.26 2.26 2.21 2.33 2.30 2.21
0.06 0.08 0.09 0.08 0.07 0.07 0.07 0.07 0.08 0.13 0.22 0.31 0.41 0.46 0.45 0.49 0.48 0.51 0.60 0.65 0.79 0.94 1.05 1.16 1.19 1.18 1.21 1.36 1.60 1.88 2.17 2.29 2.41 2.47 2.52 2.58 2.62 2.63 2.67 2.63 2.56 2.46 2.36 2.37
0.12 0.12 0.12 0.10 0.09 0.09 0.09 0.10 0.12 0.18 0.27 0.40 0.54 0.51 0.57 0.61 0.58 0.65 0.72 0.81 0.92 1.03 1.11 1.24 1.30 1.38 1.54 1.71 1.93 2.14 2.30 2.41 2.55 2.64 2.75 2.86 2.89 2.87 2.75 2.68 2.60 2.48 2.48 2.52
0.19 0.23 0.25 0.15 0.16 0.19 0.22 0.25 0.28 0.30 0.37 0.46 0.57 0.59 0.63 0.66 0.65 0.67 0.79 0.96 0.99 1.05 1.15 1.22 1.36 1.53 1.69 1.78 1.92 2.23 2.41 2.48 2.54 2.60 2.69 2.82 2.97 2.91 2.74 2.66 2.62 2.57 2.53 2.42
0.32 0.29 0.31 0.30 0.27 0.29 0.38 0.47 0.44 0.59 0.66 0.61 0.64 0.69 0.71 0.71 0.86 0.87 0.87 0.96 1.02 1.12 1.20 1.31 1.37 1.42 1.44 1.53 1.70 1.92 2.15 2.31 2.30 2.42 2.62 2.72 2.75 2.75 2.78 2.73 2.55 2.41 2.29 2.23
0.46 0.49 0.46 0.45 0.47 0.38 0.43 0.76 0.76 0.85 0.93 0.87 0.89 1.07 0.99 0.76 0.76 0.83 0.90 0.97 1.07 1.21 1.26 1.26 1.27 1.28 1.35 1.49 1.71 1.92 2.14 2.32 2.46 2.55 2.69 2.74 2.78 2.86 2.86 2.80 2.76 2.71 2.56 2.42
0.53 0.58 0.57 0.50 0.46 0.47 0.80 1.07 1.05 1.12 1.14 1.07 1.12 1.14 1.05 0.90 0.84 0.82 0.89 0.96 1.05 1.20 1.33 1.32 1.33 1.46 1.58 1.71 1.88 2.06 2.18 2.25 2.36 2.50 2.66 2.86 3.04 2.97 2.93 2.86 2.75 2.57 2.39 2.26
0.74 0.94 1.05 0.77 0.69 0.90 1.07 0.84 0.90 1.08 1.27 1.30 1.23 1.15 1.07 0.98 0.90 0.82 0.77 0.86 1.03 1.16 1.29 1.42 1.54 1.69 1.81 1.84 1.90 2.05 2.24 2.31 2.36 2.51 2.55 2.64 2.78 2.73 2.66 2.64 2.61 2.55 2.49 2.42
1.07 1.24 1.13 0.95 0.97 0.91 0.97 1.11 1.17 1.27 1.46 1.48 1.34 1.20 1.20 1.12 0.99 0.89 0.87 0.92 1.03 1.15 1.28 1.38 1.55 1.72 1.87 1.96 2.03 2.11 2.21 2.33 2.47 2.54 2.57 2.68 2.80 2.80 2.69 2.58 2.51 2.40 2.31 2.14
1.27 1.41 1.25 1.09 1.06 1.01 1.07 1.25 1.31 1.29 1.31 1.32 1.27 1.20 1.31 1.33 1.17 1.12 1.12 1.12 1.14 1.21 1.28 1.37 1.46 1.62 1.81 1.94 1.98 2.09 2.16 2.20 2.34 2.46 2.58 2.71 2.73 2.62 2.47 2.29 2.20 2.13 2.03 1.92
1.53 1.73 1.65 1.46 1.32 1.23 1.23 1.19 1.27 1.20 1.22 1.21 1.20 1.17 1.24 1.36 1.42 1.35 1.23 1.17 1.20 1.26 1.33 1.37 1.44 1.51 1.73 1.92 1.99 2.01 2.12 2.17 2.16 2.18 2.27 2.38 2.43 2.39 2.26 2.13 2.02 1.95 1.83 1.81
1.89 1.89 1.99 1.87 1.54 1.35 1.40 1.35 1.29 1.25 1.33 1.37 1.31 1.24 1.25 1.38 1.43 1.40 1.31 1.25 1.25 1.27 1.30 1.36 1.46 1.58 1.65 1.89 2.13 2.19 2.16 2.04 1.95 1.87 1.86 1.89 1.89 1.95 2.07 1.96 1.95 1.81 1.69 1.61
1.59 1.84 1.90 1.74 1.55 1.58 1.57 1.54 1.50 1.49 1.47 1.48 1.53 1.47 1.36 1.34 1.37 1.35 1.33 1.31 1.31 1.35 1.41 1.48 1.60 1.65 1.63 1.70 1.92 2.13 2.07 1.93 1.82 1.76 1.76 1.71 1.67 1.68 1.79 1.83 1.79 1.71 1.68 1.55
1.40 1.61 1.84 1.71 1.66 1.65 1.60 1.64 1.65 1.70 1.69 1.60 1.61 1.60 1.48 1.40 1.35 1.34 1.35 1.25 1.17 1.20 1.30 1.37 1.46 1.57 1.62 1.64 1.74 1.85 1.92 1.97 1.83 1.71 1.76 1.76 1.73 1.70 1.72 1.76 1.75 1.67 1.65 1.60
1.37 1.40 1.52 1.50 1.50 1.56 1.51 1.53 1.66 1.76 1.82 1.78 1.73 1.64 1.51 1.50 1.45 1.36 1.25 1.16 1.15 1.19 1.19 1.24 1.30 1.34 1.40 1.53 1.65 1.71 1.74 1.78 1.79 1.78 1.75 1.76 1.77 1.69 1.63 1.61 1.63 1.55 1.49 1.57
1.38 1.26 1.28 1.47 1.55 1.56 1.61 1.65 1.66 1.63 1.58 1.59 1.58 1.57 1.56 1.51 1.42 1.32 1.24 1.22 1.27 1.31 1.27 1.24 1.26 1.26 1.25 1.32 1.53 1.65 1.65 1.80 1.73 1.73 1.73 1.70 1.74 1.75 1.70 1.69 1.66 1.57 1.49 1.50
1.42 1.34 1.36 1.47 1.49 1.56 1.66 1.59 1.52 1.46 1.44 1.43 1.45 1.43 1.42 1.48 1.45 1.40 1.38 1.32 1.30 1.36 1.37 1.37 1.36 1.30 1.30 1.36 1.46 1.57 1.51 1.57 1.65 1.52 1.54 1.61 1.59 1.63 1.66 1.67 1.63 1.55 1.46 1.46
1.36 1.27 1.36 1.47 1.47 1.52 1.45 1.39 1.33 1.23 1.25 1.35 1.45 1.47 1.42 1.42 1.40 1.44 1.45 1.35 1.26 1.30 1.33 1.37 1.34 1.31 1.31 1.38 1.43 1.54 1.50 1.41 1.41 1.44 1.56 1.61 1.65 1.67 1.71 1.68 1.64 1.62 1.61 1.62
1.31 1.29 1.29 1.28 1.30 1.38 1.29 1.27 1.25 1.26 1.21 1.27 1.37 1.43 1.44 1.44 1.41 1.34 1.35 1.45 1.49 1.46 1.34 1.23 1.26 1.18 1.22 1.37 1.44 1.50 1.57 1.53 1.48 1.47 1.58 1.71 1.73 1.76 1.79 1.77 1.74 1.73 1.69 1.65
1.40 1.43 1.38 1.27 1.26 1.36 1.35 1.27 1.19 1.20 1.18 1.21 1.34 1.44 1.47 1.41 1.37 1.36 1.45 1.53 1.55 1.38 1.15 1.08 1.02 1.04 1.06 1.16 1.28 1.29 1.41 1.49 1.50 1.49 1.53 1.56 1.59 1.61 1.61 1.59 1.60 1.61 1.64 1.70
1.64 1.52 1.43 1.37 1.25 1.21 1.28 1.30 1.29 1.26 1.19 1.21 1.35 1.38 1.41 1.33 1.23 1.28 1.42 1.47 1.38 1.17 1.00 1.06 1.07 1.05 0.97 1.02 1.09 1.11 1.25 1.40 1.47 1.45 1.42 1.45 1.44 1.37 1.36 1.42 1.53 1.63 1.66 1.69
1.62 1.44 1.28 1.19 1.21 1.29 1.25 1.25 1.28 1.32 1.38 1.46 1.44 1.38 1.38 1.36 1.27 1.29 1.28 1.31 1.19 1.13 0.95 0.95 1.02 1.06 1.00 0.92 0.89 1.08 1.23 1.34 1.40 1.40 1.40 1.43 1.46 1.41 1.34 1.38 1.48 1.53 1.57 1.56
1.48 1.34 1.29 1.26 1.28 1.35 1.31 1.28 1.30 1.32 1.38 1.51 1.58 1.55 1.50 1.42 1.35 1.35 1.37 1.21 1.06 1.04 0.98 1.02 1.04 1.00 0.95 0.88 0.91 1.01 1.08 1.16 1.19 1.21 1.23 1.32 1.44 1.48 1.44 1.37 1.31 1.32 1.41 1.46
1.52 1.41 1.36 1.28 1.27 1.37 1.48 1.47 1.41 1.37 1.31 1.37 1.42 1.45 1.46 1.44 1.41 1.32 1.39 1.40 1.22 1.03 0.98 1.07 0.99 0.90 0.91 0.93 1.01 1.06 1.09 1.11 1.12 1.17 1.22 1.30 1.44 1.51 1.46 1.35 1.23 1.17 1.25 1.39
1.52 1.47 1.45 1.43 1.40 1.39 1.41 1.41 1.38 1.32 1.23 1.26 1.21 1.23 1.31 1.39 1.49 1.49 1.46 1.37 1.31 1.19 1.05 1.00 0.97 0.91 0.86 0.94 1.04 1.09 1.08 1.08 1.11 1.17 1.19 1.23 1.28 1.33 1.37 1.32 1.21 1.13 1.13 1.21
1.57 1.46 1.40 1.43 1.45 1.38 1.32 1.36 1.47 1.49 1.45 1.44 1.33 1.22 1.23 1.34 1.44 1.49 1.47 1.35 1.17 1.07 1.01 0.98 0.93 0.90 0.85 0.90 0.98 1.04 1.07 1.09 1.09 1.04 1.01 1.03 1.03 0.99 1.01 1.05 1.08 1.10 1.09 1.05
1.50 1.40 1.34 1.29 1.23 1.16 1.23 1.30 1.39 1.50 1.53 1.47 1.37 1.22 1.20 1.31 1.41 1.39 1.28 1.22 1.12 1.01 0.91 0.80 0.75 0.77 0.80 0.82 0.83 0.84 0.88 0.90 0.93 1.02 1.13 1.18 1.01 0.85 0.80 0.85 0.91 0.96 0.98 0.95